Morgantown, WV

7:21 PM EDT on July 25, 2017 (GMT -0400)
Morgantown Municipal-Hart

Weather History for KMGW - January, 2003

Change the Weather History Date:

Thursday, January 2, 2003

  Actual Average Record
Temperature  
Mean Temperature 36 °F 32 °F  
Max Temperature 39 °F 39 °F 70 °F (2000)
Min Temperature 33 °F 24 °F -8 °F (1968)
Degree Days  
Heating Degree Days 29 33  
Month to date heating degree days 66  
Since 1 July heating degree days 2050  
Cooling Degree Days 0 0  
Month to date cooling degree days 0  
Year to date cooling degree days 0  
Moisture  
Dew Point 37 °F    
Average Humidity 99    
Maximum Humidity 100    
Minimum Humidity 89    
Precipitation  
Precipitation 0.25 in 0.09 in 1.06 in (1966)
Month to date precipitation 0.18  
Year to date precipitation 0.18  
Sea Level Pressure  
Sea Level Pressure 29.88 in    
Wind  
Wind Speed 4 mph (North)    
Max Wind Speed 9 mph    
Max Gust Speed -    
Visibility 4 miles    
Events Rain    
T = Trace of Precipitation, MM = Missing Value Source: NWS Daily Summary

Daily Weather History Graph

Daily Weather History Graph

Search for Another Location

Airport or City:

Trip Planner

Search our weather history database for the weather conditions in past years. The results will help you decide how hot, cold, wet, or windy it might be!

Date:

Astronomy

Jan. 02, 2003 Rise Set
Actual Time 7:40 AM EST 5:06 PM EST
Civil Twilight 7:10 AM EST 5:37 PM EST
Nautical Twilight 6:36 AM EST 6:10 PM EST
Astronomical Twilight 6:03 AM EST 6:43 PM EST
Moon 7:41 AM EST (1/2) 4:53 PM EST (1/2)
Length of Visible Light 10h 26m
Length of Day
9h 26m
Waning Crescent, 0% of the Moon is Illuminated
Jan 2
Waning Crescent
Jan 2
New
Jan 10
First Quarter
Jan 18
Full
Jan 25
Last Quarter

Hourly Weather History & Observations

Time (EST) Temp. Windchill Dew Point Humidity Pressure Visibility Wind Dir Wind Speed Gust Speed Precip Events Conditions
12:00 AM 35.6 °F 30.7 °F 35.6 °F 100% 29.81 in 5.0 mi Variable 5.8 mph - 0.00 in   Overcast
12:53 AM 36.0 °F 32.1 °F 36.0 °F 100% 29.82 in 10.0 mi North 4.6 mph - 0.00 in   Overcast
1:20 AM 35.6 °F 32.8 °F 35.6 °F 100% 29.82 in 10.0 mi Variable 3.5 mph - N/A   Overcast
1:41 AM 35.6 °F - 35.6 °F 100% 29.83 in 7.0 mi Calm Calm - N/A   Overcast
1:53 AM 36.0 °F 32.1 °F 36.0 °F 100% 29.86 in 5.0 mi WNW 4.6 mph - N/A   Overcast
2:53 AM 35.1 °F 32.2 °F 35.1 °F 100% 29.89 in 3.0 mi Variable 3.5 mph - 0.01 in   Overcast
3:31 AM 35.6 °F 31.7 °F 35.6 °F 100% 29.88 in 2.5 mi NNW 4.6 mph - 0.01 in   Overcast
3:40 AM 35.6 °F 32.8 °F 35.6 °F 100% 29.88 in 3.0 mi Variable 3.5 mph - 0.01 in   Overcast
3:53 AM 35.1 °F 30.1 °F 35.1 °F 100% 29.91 in 2.5 mi Variable 5.8 mph - 0.01 in Rain Light Rain
4:03 AM 33.8 °F 27.7 °F 33.8 °F 100% 29.89 in 3.0 mi NNW 6.9 mph - 0.01 in   Overcast
4:53 AM 34.0 °F 29.8 °F 34.0 °F 100% 29.90 in 5.0 mi North 4.6 mph - 0.01 in   Overcast
5:04 AM 33.8 °F 29.6 °F 33.8 °F 100% 29.88 in 4.0 mi North 4.6 mph - N/A   Overcast
5:53 AM 33.1 °F 30.0 °F - N/A% 29.91 in 5.0 mi Variable 3.5 mph - N/A   Haze
7:13 AM 33.8 °F 30.8 °F 33.8 °F 100% 29.91 in 2.0 mi NW 3.5 mph - N/A   Overcast
7:37 AM 33.8 °F 30.8 °F 33.8 °F 100% 29.92 in 1.2 mi NNW 3.5 mph - N/A   Overcast
7:53 AM 33.1 °F 30.0 °F 33.1 °F 100% 29.95 in 0.8 mi North 3.5 mph - N/A   Overcast
8:32 AM 33.8 °F 29.6 °F - N/A% 29.93 in 1.2 mi NE 4.6 mph - N/A   Overcast
8:53 AM 34.0 °F 29.8 °F 34.0 °F 100% 29.96 in 1.2 mi North 4.6 mph - N/A   Overcast
9:53 AM 34.0 °F 31.0 °F 34.0 °F 100% 29.96 in 1.5 mi NE 3.5 mph - N/A   Overcast
10:00 AM 35.6 °F 31.7 °F 33.8 °F 93% 29.92 in 2.5 mi North 4.6 mph - N/A   Overcast
10:45 AM 35.6 °F 32.8 °F 35.6 °F 100% 29.92 in 2.5 mi NNE 3.5 mph - N/A   Overcast
10:53 AM 36.0 °F 32.1 °F 36.0 °F 100% 29.94 in 2.5 mi North 4.6 mph - N/A   Overcast
10:57 AM 35.6 °F 31.7 °F 35.6 °F 100% 29.92 in 4.0 mi North 4.6 mph - N/A   Overcast
11:20 AM 37.4 °F 33.8 °F 37.4 °F 100% 29.90 in 4.0 mi NNE 4.6 mph - N/A   Overcast
11:53 AM 37.0 °F 34.5 °F 37.0 °F 100% 29.91 in 4.0 mi NNE 3.5 mph - N/A   Overcast
12:00 PM 37.4 °F 34.9 °F 37.4 °F 100% 29.88 in 10.0 mi North 3.5 mph - N/A   Overcast
12:33 PM 37.4 °F 34.9 °F 37.4 °F 100% 29.85 in 10.0 mi NE 3.5 mph - N/A   Overcast
12:53 PM 37.0 °F 31.6 °F 37.0 °F 100% 29.87 in 10.0 mi North 6.9 mph - N/A   Overcast
1:30 PM 37.4 °F - 37.4 °F 100% 29.85 in 2.0 mi Calm Calm - 0.00 in   Drizzle
1:38 PM 37.4 °F 33.8 °F 37.4 °F 100% 29.85 in 2.0 mi NNW 4.6 mph - 0.01 in   Drizzle
1:53 PM 37.0 °F 33.3 °F 37.0 °F 100% 29.87 in 2.0 mi North 4.6 mph - 0.01 in   Drizzle
2:53 PM 37.0 °F 31.6 °F 37.0 °F 100% 29.85 in 2.0 mi NE 6.9 mph - 0.00 in   Drizzle
3:00 PM 37.4 °F 33.8 °F 37.4 °F 100% 29.82 in 9.0 mi North 4.6 mph - 0.00 in   Drizzle
3:53 PM 37.9 °F 34.4 °F 37.9 °F 100% 29.86 in 3.0 mi NW 4.6 mph - 0.00 in   Drizzle
4:06 PM 37.4 °F 34.9 °F 37.4 °F 100% 29.83 in 4.0 mi Variable 3.5 mph - 0.00 in   Drizzle
4:22 PM 37.4 °F 34.9 °F 37.4 °F 100% 29.83 in 4.0 mi NNW 3.5 mph - 0.00 in   Drizzle
4:53 PM 37.9 °F - 37.9 °F 100% 29.86 in 3.0 mi Calm Calm - 0.00 in   Drizzle
5:53 PM 37.9 °F - 37.9 °F 100% 29.87 in 3.0 mi Calm Calm - 0.02 in Rain Light Rain
6:05 PM 37.4 °F - 37.4 °F 100% 29.84 in 2.0 mi Calm Calm - 0.01 in Rain Light Rain
6:13 PM 39.2 °F - 37.4 °F 93% 29.85 in 1.8 mi Calm Calm - 0.02 in Rain Light Rain
6:20 PM 37.4 °F - 37.4 °F 100% 29.85 in 0.8 mi Calm Calm - 0.03 in Rain Light Rain
6:27 PM 37.4 °F - 37.4 °F 100% 29.85 in 1.0 mi Calm Calm - 0.04 in Rain Light Rain
6:53 PM 39.0 °F - 39.0 °F 100% 29.88 in 1.8 mi Calm Calm - 0.06 in Rain Light Rain
7:04 PM 39.2 °F - 39.2 °F 100% 29.85 in 2.0 mi Calm Calm - 0.01 in Rain Light Rain
7:22 PM 39.2 °F - 39.2 °F 100% 29.85 in 3.0 mi Calm Calm - 0.02 in Rain Light Rain
7:53 PM 39.9 °F 35.1 °F 39.0 °F 97% 29.88 in 5.0 mi ESE 6.9 mph - 0.03 in Rain Light Rain
8:53 PM 39.9 °F - 39.0 °F 97% 29.88 in 5.0 mi Calm Calm - 0.05 in Rain Rain
9:53 PM 39.9 °F 35.1 °F 39.0 °F 97% 29.88 in 6.0 mi SE 6.9 mph - 0.02 in Rain Light Rain
10:53 PM 39.9 °F 35.8 °F 37.9 °F 93% 29.86 in 10.0 mi SE 5.8 mph - 0.02 in Rain Light Rain
11:32 PM 39.2 °F 35.9 °F 37.4 °F 93% 29.83 in 10.0 mi Variable 4.6 mph - 0.01 in Rain Light Rain
11:53 PM 39.9 °F 33.9 °F 37.0 °F 89% 29.84 in 10.0 mi SE 9.2 mph - 0.01 in Rain Light Rain